AO-07 1 07530U 74089B 21238.56681594 -.00000042 00000-0 22185-4 0 9992 2 07530 101.8605 213.0117 0011807 247.5648 224.5523 12.53649961140516 UO-11 1 14781U 84021B 21238.55107964 .00000116 00000-0 20276-4 0 9998 2 14781 97.5960 234.9511 0007720 201.3093 158.7801 14.83315562996325 LO-19 1 20442U 90005G 21238.59028127 .00000014 00000-0 21607-4 0 9991 2 20442 98.7468 194.7154 0011040 319.7111 40.3254 14.32994888650876 HUBBLE 1 20580U 90037B 21238.52298655 .00000650 00000-0 28343-4 0 9997 2 20580 28.4707 321.4280 0002920 96.7069 346.3229 15.09713036521591 MET-2/21 1 22782U 93055A 21238.58617660 .00000014 00000-0 -68267-6 0 9999 2 22782 82.5456 248.2436 0023761 94.7504 22.8672 13.83837020413224 AO-27 1 22825U 93061C 21238.55212239 -.00000011 00000-0 13637-4 0 9990 2 22825 98.9161 257.8812 0008328 183.3967 176.7159 14.30122445456003 IO-26 1 22826U 93061D 21238.57586070 -.00000004 00000-0 16183-4 0 9991 2 22826 98.9104 257.8077 0009101 171.0780 189.0564 14.30462496456258 FO-29 1 24278U 96046B 21238.39950392 -.00000037 00000-0 32619-6 0 9992 2 24278 98.5618 297.0885 0349806 328.5909 29.4754 13.53105323235701 NOAA-15 1 25338U 98030A 21238.60038310 .00000055 00000-0 41442-4 0 9997 2 25338 98.6785 266.4837 0011516 78.5173 281.7299 14.26054657210996 GO-32 1 25397U 98043D 21238.47364494 -.00000009 00000-0 15614-4 0 9998 2 25397 98.7744 183.8481 0000550 179.7654 180.3525 14.23713887201459 ISS 1 25544U 98067A 21238.75442873 .00001709 00000-0 39785-4 0 9999 2 25544 51.6458 353.7620 0002735 318.0806 134.7272 15.48520203299534 NO-44 1 26931U 01043C 21238.36776835 -.00000030 00000-0 20276-4 0 9995 2 26931 67.0506 100.0037 0005522 265.3043 94.7428 14.30629572 39190 SO-50 1 27607U 02058C 21238.30168491 .00000065 00000-0 29865-4 0 9990 2 27607 64.5552 124.7504 0049305 359.5812 0.5240 14.75779396 4810 CO-55 1 27844U 03031E 21238.54225837 .00000054 00000-0 43777-4 0 9995 2 27844 98.6810 245.6923 0008861 231.9524 128.0855 14.22327769941948 CO-57 1 27848U 03031J 21238.48596575 .00000037 00000-0 36386-4 0 9991 2 27848 98.6866 246.1971 0008625 247.2033 112.8234 14.21902622941763 RS-22 1 27939U 03042A 21238.49874612 .00000057 00000-0 19008-4 0 9990 2 27939 98.1510 15.1404 0014040 62.4521 297.8112 14.67013042957795 NOAA-18 1 28654U 05018A 21238.63816089 .00000091 00000-0 73370-4 0 9990 2 28654 98.9890 303.7646 0015291 85.3715 274.9203 14.12632918838447 CO-58 1 28895U 05043F 21238.62126615 .00000164 00000-0 40388-4 0 9997 2 28895 98.0682 10.3627 0016443 354.3059 5.7954 14.63947739844271 Falconsat-3 1 30776U 07006E 21238.52233772 .00007354 00000-0 17211-3 0 9997 2 30776 35.4354 9.6809 0002281 204.1410 155.9211 15.41450736803928 CO-65 1 32785U 08021C 21238.36701338 .00000361 00000-0 44206-4 0 9993 2 32785 97.6170 214.5197 0014149 127.2411 233.0099 14.88778287722572 AAUSAT2 1 32788U 08021F 21238.53591872 .00001196 00000-0 11222-3 0 9993 2 32788 97.5090 230.2711 0012860 41.4506 318.7689 14.95707179724334 DO-64 1 32789U 08021G 21238.56508689 .00002338 00000-0 15043-3 0 9995 2 32789 97.3723 271.2266 0009899 259.1801 100.8314 15.09288592727405 CO-66 1 32791U 08021J 21238.47164581 .00000426 00000-0 47877-4 0 9994 2 32791 97.5764 220.4609 0014860 92.6017 267.6904 14.91487564723217 RS-30 1 32953U 08025A 21238.40913825 .00000021 00000-0 80971-4 0 9997 2 32953 82.5070 7.4186 0019719 181.8504 178.2507 12.43104141601677 PRISM 1 33493U 09002B 21238.47727697 .00000513 00000-0 49141-4 0 9990 2 33493 98.1952 204.4231 0016506 56.9612 303.3192 14.97802604684809 NOAA-19 1 33591U 09005A 21238.60799849 .00000029 00000-0 41319-4 0 9996 2 33591 99.1812 261.0427 0013015 297.6643 62.3207 14.12491281646562 SRMSAT 1 37841U 11058D 21238.39541022 .00000309 00000-0 24847-4 0 9991 2 37841 19.9709 238.3464 0011776 343.2843 163.6048 14.10701759509523 HRBE 1 37855U 11061F 21238.49275960 .00001442 00000-0 76131-4 0 9998 2 37855 101.7150 198.2439 0165548 222.2198 136.6171 15.08036548536735 RS-40 1 38735U 12041C 21238.32146080 .00000019 00000-0 69320-4 0 9998 2 38735 82.4742 89.5304 0016614 296.7228 63.2152 12.42583506411863 ZACUBE-1 1 39417U 13066B 21238.48735142 .00000345 00000-0 49279-4 0 9997 2 39417 97.5984 219.2067 0057087 292.2809 67.2358 14.81574101419449 GOMX-1 1 39430U 13066Q 21238.59124611 .00000181 00000-0 42023-4 0 9995 2 39430 97.8114 157.6300 0148886 254.0072 104.4691 14.59659931413272 LO-74 1 39440U 13066AA 21238.46854701 .00000401 00000-0 62091-4 0 9994 2 39440 97.6822 204.3811 0080141 9.5088 350.7617 14.76295058416758 AO-73 1 39444U 13066AE 21238.42833898 .00000410 00000-0 56249-4 0 9996 2 39444 97.5887 221.5270 0056012 282.2030 77.2914 14.82494094417805 SPROUT 1 39770U 14029E 21238.58946374 .00000660 00000-0 76873-4 0 9991 2 39770 97.9223 349.8286 0008440 346.7380 13.3611 14.88585347393774 DTUSAT-2 1 40030U 14033W 21238.30900458 .00000367 00000-0 44980-4 0 9998 2 40030 97.9148 165.5413 0010713 310.7296 49.2990 14.89053036389712 EO-80 1 40032U 14033Y 21238.54296799 .00000461 00000-0 54943-4 0 9997 2 40032 97.9155 165.7830 0010692 310.9390 49.0900 14.89012432389725 HODOYOSHI-1 1 40299U 14070B 21238.44908973 .00000882 00000-0 38192-4 0 9991 2 40299 97.2824 310.1268 0014506 99.2408 317.4437 15.24871200378082 FIREBIRD FU3 1 40377U 15003B 21238.47030890 .00003085 00000-0 11362-3 0 9999 2 40377 99.1092 34.4330 0115331 298.4084 60.5561 15.22912220363448 FIREBIRD FU4 1 40378U 15003C 21238.37861504 .00002950 00000-0 10861-3 0 9996 2 40378 99.1096 34.4745 0115413 298.5084 60.4564 15.22963804363430 GRIFEX 1 40379U 15003D 21238.39319811 .00001669 00000-0 70309-4 0 9998 2 40379 99.1053 23.1967 0126805 332.7941 26.6681 15.18437237362798 NO-84 1 40654U 15025D 21237.28350090 .00029543 00000-0 17377-3 0 1234 2 40654 54.9765 75.3959 0062574 247.6644 111.7754 15.75218754 17887 XW-2A 1 40903U 15049E 21238.62190778 .00003392 00000-0 71561-4 0 9992 2 40903 97.2303 292.8908 0013901 115.8198 10.7348 15.45824304333634 XW-2C 1 40906U 15049H 21238.55863059 .00000761 00000-0 41999-4 0 9995 2 40906 97.4882 240.0468 0013292 309.6540 166.2855 15.16891819328192 XW-2D 1 40907U 15049J 21238.47829646 .00001133 00000-0 60265-4 0 9992 2 40907 97.4867 239.7857 0012470 305.6841 206.5053 15.17234821328216 LILACSAT-2 1 40908U 15049K 21238.52255862 .00000666 00000-0 39681-4 0 9990 2 40908 97.5074 237.5729 0014763 322.7542 157.0663 15.14530503327834 XW-2E 1 40909U 15049L 21238.57385318 .00001420 00000-0 69512-4 0 9991 2 40909 97.4669 243.9802 0011451 289.1192 190.2228 15.19788684328584 XW-2F 1 40910U 15049M 21238.60025093 .00001567 00000-0 77409-4 0 9994 2 40910 97.4732 243.0897 0012490 288.2405 191.2328 15.19289653328374 XW-2B 1 40911U 15049N 21238.54424749 .00001091 00000-0 58336-4 0 9999 2 40911 97.4864 240.5229 0012414 307.2422 168.5064 15.17149369328112 DCBB 1 40912U 15049P 21238.54568556 .00001621 00000-0 74267-4 0 9995 2 40912 97.4441 247.4174 0012416 256.0010 224.0140 15.21860992328856 TW-1A 1 40928U 15051D 21238.62361200 .00005083 00000-0 10352-3 0 9991 2 40928 97.0735 261.8629 0010570 45.7551 73.0202 15.46637539332539 IO-86 1 40931U 15052B 21238.37971133 .00000771 00000-0 18098-4 0 9995 2 40931 5.9938 113.7054 0013790 312.8887 47.0146 14.76686092319656 ATHENOXAT-1 1 41168U 15077C 21238.32761574 .00002672 00000-0 99381-4 0 9992 2 41168 14.9862 107.1600 0010700 68.7330 264.0449 15.15976355315399 ChubuSat-2 1 41338U 16012B 21238.31338262 .00000515 00000-0 33083-4 0 9995 2 41338 31.0030 101.6551 0013452 106.3886 253.8229 15.00580376303107 ChubuSat-3 1 41339U 16012C 21237.99708977 .00000399 00000-0 24001-4 0 9993 2 41339 31.0114 100.8212 0013318 110.0146 250.1937 15.00723478303050 Horyu-4 1 41340U 16012D 21238.26750960 .00000799 00000-0 52919-4 0 9998 2 41340 31.0053 81.8016 0013579 147.0014 213.1471 15.01976034303294 e-st@r-II 1 41459U 16025D 21238.47402102 .00003521 00000-0 17271-3 0 9995 2 41459 98.1475 18.9002 0159156 186.1959 173.7308 15.08397064292976 AAUSAT4 1 41460U 16025E 21238.35701824 .00004804 00000-0 22208-3 0 9998 2 41460 98.1516 23.0165 0146024 169.1354 191.3157 15.11651436293273 LO-87 1 41557U 16033B 21238.51857846 .00001818 00000-0 65598-4 0 9990 2 41557 97.3950 332.0820 0012463 354.3135 61.6110 15.29768722292248 NuSat2 1 41558U 16033C 21238.55448010 .00001896 00000-0 64093-4 0 9999 2 41558 97.4068 336.2651 0011354 347.4521 69.1494 15.31866585292458 Lapan A3 1 41603U 16040E 21238.57765188 .00000340 00000-0 18735-4 0 9993 2 41603 97.2500 282.8256 0015016 114.0766 30.4619 15.20080951287236 Pratham 1 41783U 16059A 21238.42424827 .00000071 00000-0 22663-4 0 9994 2 41783 97.9586 286.1114 0034093 27.5689 332.7312 14.63160061262489 TY-1 1 41844U 16066D 21238.56436404 .00001139 00000-0 47091-4 0 9997 2 41844 97.3988 248.0613 0012774 247.8676 227.1513 15.25986873266595 CAS-2T 1 41847U 16066G 21238.60303576 .00000118 00000-0 27996-4 0 9996 2 41847 98.5955 297.9995 0365328 11.1690 349.7335 14.38228207251966 EO-88 1 42017U 17008BX 21238.15651319 .00003105 00000-0 11439-3 0 9997 2 42017 97.3106 304.5077 0005077 204.9856 155.1139 15.28561430251908 CAS-4B 1 42759U 17034B 21238.27688903 .00000272 00000-0 29599-4 0 9990 2 42759 43.0169 157.1848 0009172 247.9324 252.6618 15.10318308231709 CAS-4A 1 42761U 17034D 21238.26325748 .00000331 00000-0 33055-4 0 9995 2 42761 43.0178 156.2627 0009675 249.1843 248.4142 15.10406713231708 NIUSat 1 42766U 17036B 21238.55716772 .00001706 00000-0 75391-4 0 9991 2 42766 97.2447 282.0849 0013188 291.0909 68.8918 15.22970748231881 Aalto 1 1 42775U 17036L 21238.59912543 .00001355 00000-0 60640-4 0 9990 2 42775 97.2415 282.3381 0011733 290.3012 69.6964 15.22874976231876 URSA MAIOR 1 42776U 17036M 21238.58897664 .00001530 00000-0 67562-4 0 9991 2 42776 97.2429 282.8356 0011505 289.6040 70.3955 15.23159173231895 Max Valier Sat 1 42778U 17036P 21238.57132566 .00001637 00000-0 70711-4 0 9993 2 42778 97.2495 284.8710 0010012 292.0836 67.9339 15.23842885231964 Pegasus 1 42784U 17036V 21238.59990861 .00002057 00000-0 85879-4 0 9990 2 42784 97.2447 285.4138 0009672 295.5353 64.4885 15.24716174232041 NUDATSat 1 42787U 17036Y 21238.64474581 .00002553 00000-0 99522-4 0 9996 2 42787 97.2500 288.1031 0009657 293.8224 66.2002 15.26805606232049 SUCHAI 1 1 42788U 17036Z 21238.36443676 .00002643 00000-0 10681-3 0 9995 2 42788 97.2453 286.2693 0009030 292.6622 67.3661 15.25563925232142 SKCUBE 1 42789U 17036AA 21238.60310182 .00002307 00000-0 94413-4 0 9991 2 42789 97.2451 286.1779 0009032 292.7272 67.3011 15.25275939232086 VZLUSAT 1 1 42790U 17036AB 21238.57453146 .00003578 00000-0 13853-3 0 9996 2 42790 97.2480 288.0243 0008238 286.2727 73.7606 15.26778177232182 VENTA 1 1 42791U 17036AC 21238.58713600 .00002225 00000-0 91367-4 0 9997 2 42791 97.2448 286.1675 0008752 293.6361 66.3958 15.25201491232077 Robusta 1B 1 42792U 17036AD 21238.36391227 .00002622 00000-0 10611-3 0 9994 2 42792 97.2450 286.3542 0008540 293.5745 66.4596 15.25529149232089 D-SAT 1 42794U 17036AF 21238.59480478 .00000688 00000-0 64284-4 0 9994 2 42794 97.4601 254.7544 0125113 352.2829 7.6462 14.91652619227516 TechnoSat 1 42829U 17042E 21238.57053075 .00000358 00000-0 41150-4 0 9998 2 42829 97.4594 104.3487 0012570 274.0526 85.9256 14.91326873224134 QIKCOM-1 1 42983U 98067NF 21238.58557863 .00010947 00000-0 10123-3 0 9990 2 42983 51.6347 262.6974 0001989 266.2812 93.7957 15.68131567218402 AO-91 1 43017U 17073E 21238.46325077 .00001256 00000-0 10050-3 0 9996 2 43017 97.6987 139.6544 0256056 72.0215 290.8726 14.79660847203478 EcAMSat 1 43019U 98067NG 21238.23924452 .00045419 00000-0 19684-3 0 9998 2 43019 51.6365 222.0561 0000821 34.5687 325.5370 15.84394969301239 PICSAT 1 43132U 18004X 21238.48293284 .00002125 00000-0 85072-4 0 9998 2 43132 97.4056 312.3974 0007937 330.9990 29.0806 15.26151865201361 AO-92 1 43137U 18004AC 21238.45814679 .00001875 00000-0 76827-4 0 9996 2 43137 97.4026 311.7711 0007814 334.6505 25.4349 15.25513910201333 TianYi 2 1 43155U 18008A 21238.44718958 .00001287 00000-0 77056-4 0 9994 2 43155 97.3975 301.2998 0018810 87.5198 328.3342 15.12620658198658 Zhou Enlai 1 43156U 18008B 21238.61417668 .00000898 00000-0 55496-4 0 9999 2 43156 97.4014 301.2984 0016088 86.1277 56.4152 15.12237591198611 TianYi 6 1 43158U 18008D 21238.64655045 .00001429 00000-0 87512-4 0 9992 2 43158 97.3967 299.8038 0015093 86.0615 39.4815 15.11649148198544 S-Net D 1 43186U 18014G 21238.53586626 .00000245 00000-0 26190-4 0 9996 2 43186 97.6701 144.8460 0010401 200.7583 159.3218 14.97112325194785 S-Net B 1 43187U 18014H 21238.53581081 .00000247 00000-0 26431-4 0 9997 2 43187 97.6698 144.8098 0010402 200.7025 159.3777 14.97111764194786 S-Net A 1 43188U 18014J 21238.46907807 .00000237 00000-0 25551-4 0 9999 2 43188 97.6702 144.7922 0010386 200.9971 159.0826 14.97110569194774 S-Net C 1 43189U 18014K 21238.46956959 .00000261 00000-0 27564-4 0 9995 2 43189 97.6697 144.7368 0010395 200.8806 159.1993 14.97110290193325 FMN 1 1 43192U 18015A 21238.52757420 .00003153 00000-0 11590-3 0 9993 2 43192 97.4978 14.3023 0014251 0.7005 63.4362 15.28573980198294 Shaonian Xing 1 43199U 18015H 21238.57812590 .00002191 00000-0 82984-4 0 9992 2 43199 97.4763 11.2441 0015762 10.7148 50.3753 15.27909863198358 SurfSat 1 43614U 18070B 21238.54376570 .00006936 00000-0 15758-3 0 9990 2 43614 93.0360 335.2226 0016582 92.2330 268.0825 15.42887834165479 CP-7 DAVE 1 43615U 18070C 21238.51002647 .00006549 00000-0 15040-3 0 9993 2 43615 93.0365 335.1552 0016774 92.3875 267.9302 15.42566438165454 ELFIN-B 1 43616U 18070D 21238.58515091 .00011354 00000-0 23258-3 0 9993 2 43616 93.0317 335.4685 0016310 89.8311 270.4816 15.45923066165607 ELFIN-A 1 43617U 18070E 21238.58659246 .00011697 00000-0 23524-3 0 9991 2 43617 93.0366 336.3846 0015608 87.1071 273.1973 15.46469616165627 CubeBel-1 1 43666U 18083E 21238.52267315 .00001391 00000-0 68488-4 0 9994 2 43666 97.4522 266.0041 0012878 287.0124 216.9666 15.19591620156653 Changshagaoxin 1 43669U 18083H 21238.56609281 .00001223 00000-0 62817-4 0 9997 2 43669 97.4430 262.9055 0008949 281.9199 201.8735 15.18335782156523 Ten-Koh 1 43677U 18084G 21238.60964485 .00000277 00000-0 34183-4 0 9995 2 43677 97.9285 1.8607 0016518 158.8246 201.3659 14.90507064153759 PO-101 1 43678U 18084H 21238.54780559 -.00000126 00000-0 -67014-5 0 9992 2 43678 97.9326 4.2219 0009843 171.0030 189.1332 14.91776672153882 IRVINE 01 1 43693U 18088D 21238.46062663 .00005337 00000-0 20385-3 0 9998 2 43693 85.0364 148.4200 0018219 120.1111 240.1942 15.26215380155118 QO-100 1 43700U 18090A 21238.54630561 .00000133 00000-0 00000-0 0 9995 2 43700 0.0171 162.0589 0002332 30.3149 5.1377 1.00274733 10074 Reaktor Hello World 1 43743U 18096AA 21238.47651133 .00002616 00000-0 94865-4 0 9992 2 43743 97.3824 315.4567 0017797 33.6332 326.6034 15.29117477152835 MinXSS-2 1 43758U 18099A 21238.46141610 .00000686 00000-0 65873-4 0 9996 2 43758 97.6621 308.1906 0015907 169.3527 190.8035 14.96140152148981 AO-95 1 43770U 18099N 21238.17528905 .00000086 00000-0 12895-4 0 9994 2 43770 97.6604 306.8093 0014505 178.9310 181.1944 14.95395919148879 RANGE-B 1 43772U 18099Q 21238.45678644 .00000622 00000-0 60934-4 0 9996 2 43772 97.6690 308.1901 0014554 165.3069 194.8578 14.95714774148928 RANGE-A 1 43773U 18099R 21238.18627984 .00000310 00000-0 33238-4 0 9999 2 43773 97.6535 306.0722 0013922 165.9092 194.2520 14.95267331148861 MOVE-II 1 43780U 18099Y 21238.50885093 .00000401 00000-0 40746-4 0 9993 2 43780 97.6625 307.7534 0013546 173.9806 186.1581 14.96043858148945 SNUSat 2 1 43782U 18099AA 21238.13001801 .00000685 00000-0 66643-4 0 9999 2 43782 97.6601 307.1305 0013229 164.4506 195.7124 14.95630238148886 SnugLite 1 43784U 18099AC 21238.19929499 .00000847 00000-0 80935-4 0 9999 2 43784 97.6565 306.9067 0015357 172.3770 187.7688 14.95762931148910 ITASat 1 1 43786U 18099AE 21238.41557270 .00000855 00000-0 81810-4 0 9992 2 43786 97.6627 307.7708 0015423 170.7200 189.4309 14.95682495148944 EAGLET 1 1 43790U 18099AJ 21238.43373768 .00000014 00000-0 63727-5 0 9992 2 43790 97.6616 308.2287 0013514 173.7881 186.3510 14.96031531148672 ESEO 1 43792U 18099AL 21238.43001420 -.00000041 00000-0 14712-5 0 9998 2 43792 97.6581 307.7605 0013404 170.9864 189.1600 14.95773570148723 CSIM 1 43793U 18099AM 21238.47988323 .00001469 00000-0 13348-3 0 9995 2 43793 97.6617 308.3205 0013579 165.8383 194.3222 14.96711072148749 Astrocast 0.1 1 43798U 18099AS 21238.43959577 .00000030 00000-0 77157-5 0 9998 2 43798 97.6622 308.4599 0012909 153.9883 206.1990 14.96266694148981 JO-97 1 43803U 18099AX 21238.43442356 .00000128 00000-0 16497-4 0 9994 2 43803 97.6587 307.5338 0015235 170.8389 189.3113 14.95943942148956 Suomi 100 1 43804U 18099AY 21238.44136254 .00000057 00000-0 10162-4 0 9997 2 43804 97.6582 307.5013 0015330 171.3494 188.7995 14.95909676148969 Al Farabi 2 1 43805U 18099AZ 21238.56549808 .00001094 00000-0 10205-3 0 9993 2 43805 97.6607 307.8792 0015200 169.0355 191.1204 14.96154534148991 CHOMPTT 1 43855U 18104G 21238.50943599 .00001691 00000-0 67619-4 0 9999 2 43855 85.0339 247.0577 0014696 244.3220 115.6506 15.24196177149764 ISAT 1 43879U 18111D 21238.46075954 -.00000220 00000-0 -14150-4 0 9990 2 43879 97.6790 144.4669 0011469 226.7727 133.2525 14.96712622143525 UWE-4 1 43880U 18111E 21238.57152718 .00000607 00000-0 57781-4 0 9992 2 43880 97.6808 145.0919 0010697 224.0297 136.0074 14.96954595145571 Sparrow 1 43881U 18111F 21238.47269500 .00000543 00000-0 52154-4 0 9998 2 43881 97.6806 145.1408 0011374 222.6008 137.4332 14.97005574145567 Lume 1 1 43908U 18111AJ 21238.27891959 .00002116 00000-0 83299-4 0 9997 2 43908 97.2239 130.7362 0021710 47.1602 313.1457 15.26485975148325 FO-98 1 43933U 19003B 21238.57428424 .00016012 00000-0 57375-3 0 9997 2 43933 97.1782 277.4220 0017166 139.3898 220.8627 15.28673059144815 FO-99 1 43937U 19003F 21238.35836956 .00002670 00000-0 10554-3 0 9993 2 43937 97.1709 278.7316 0024618 122.3411 238.0216 15.26053156144926 MYSat 1 1 44045U 18092F 21238.28073952 .00005584 00000-0 14421-3 0 9996 2 44045 51.6370 85.2436 0010703 101.1350 259.0839 15.40684296142223 AstroCast 0.2 1 44083U 19018F 21238.42572397 .00002033 00000-0 89658-4 0 9991 2 44083 97.3673 298.1858 0014484 87.6085 272.6809 15.22836248133543 AISTechSat 3 1 44103U 19018AB 21238.65807825 .00001255 00000-0 54161-4 0 9992 2 44103 97.3542 298.8319 0014819 96.0176 24.9129 15.24273495133709 AISat 1 1 44104U 19018AC 21238.48353992 .00002082 00000-0 65938-4 0 9998 2 44104 97.4222 315.9378 0057976 105.6678 255.0971 15.32297157134395 Raavana-1 1 44329U 98067QE 21238.50992682 .00136745 00000-0 46391-3 0 9991 2 44329 51.6308 280.7524 0003896 17.9344 342.1798 15.88962643125250 Uguisu 1 44330U 98067QF 21238.48319530 .00127225 00000-0 46252-3 0 9994 2 44330 51.6261 281.9487 0003320 17.7682 342.3438 15.87604605125215 NepaliSat-1 1 44331U 98067QG 21238.51278939 .00134626 00000-0 46299-3 0 9990 2 44331 51.6275 280.6552 0003805 18.5360 341.5783 15.88697134125247 Prox-1 1 44339U 19036A 21238.45830705 .00001054 00000-0 19726-3 0 9998 2 44339 23.9993 253.2727 0010324 223.7865 136.1808 14.53695103115361 Oculus-ASR 1 44348U 19036K 21238.58321126 .00010647 00000-0 13796-3 0 9993 2 44348 28.5147 26.4879 0321783 307.2946 49.8720 15.14239942119543 Armadillo 1 44352U 19036P 21238.50587137 .00017524 00000-0 20935-3 0 9990 2 44352 28.5293 0.0571 0286754 348.3753 11.0329 15.23100112119752 NO-104 1 44354U 19036R 21238.47366071 .00010476 00000-0 13215-3 0 9992 2 44354 28.5302 19.3718 0316514 316.6496 40.9601 15.15830599119609 NO-103 1 44355U 19036S 21238.54513537 .00032127 -56124-5 31113-3 0 9990 2 44355 28.5248 321.3710 0245777 51.2247 311.0040 15.34569777120198 CP9 1 44360U 19036X 21238.29013658 .00101994 -39031-5 50505-3 0 9990 2 44360 28.4985 236.7998 0143732 190.9404 168.8057 15.66751342120879 Move-IIb 1 44398U 19038N 21238.57549570 .00001913 00000-0 10848-3 0 9995 2 44398 97.5887 202.2993 0026026 68.2975 292.1016 15.13928841118377 SONATE 1 44400U 19038Q 21238.63511539 .00000796 00000-0 48957-4 0 9991 2 44400 97.5957 202.1750 0026416 69.6446 290.7654 15.12666647118341 BeeSat 9 1 44412U 19038AC 21238.42401612 .00001719 00000-0 99212-4 0 9997 2 44412 97.5938 202.2952 0023802 74.1550 286.2303 15.13478032118038 JAISAT-1 1 44419U 19038F 21238.43747665 .00001739 00000-0 99027-4 0 9992 2 44419 97.5943 202.9114 0022670 72.3124 288.0580 15.13963632118387 LightSail-2 1 44420U 19036AC 21238.29368452 .00002753 00000-0 51678-3 0 9995 2 44420 24.0051 229.0824 0008955 226.7790 133.1955 14.60029547113713 Taurus 1 1 44530U 19059C 21238.54013484 .00000497 00000-0 15179-3 0 9991 2 44530 98.5524 329.4851 0012236 291.9553 68.0340 14.46151290103212 Duchifat 3 1 44854U 19089C 21238.50968936 .00000519 00000-0 47731-4 0 9995 2 44854 36.9666 46.3075 0009523 340.0090 20.0287 14.99584941 93626 OPS-SAT 1 44878U 19092F 21238.45656629 .00001320 00000-0 70723-4 0 9990 2 44878 97.4774 60.9450 0012180 289.5482 70.4435 15.16708422 93444 TO-108 1 44881U 19093C 21238.50830334 .00000049 00000-0 12969-4 0 9993 2 44881 97.9220 316.5656 0016415 67.1112 293.1830 14.81473029 91109 FloripaSat 1 1 44885U 19093G 21238.48841610 .00000279 00000-0 41515-4 0 9997 2 44885 97.9242 317.2369 0016044 74.7796 285.5196 14.82355542 91140 RS-44 1 44909U 19096E 21238.59984631 -.00000010 00000-0 -77187-4 0 9999 2 44909 82.5177 66.1959 0216456 289.2176 68.5617 12.79710552 77795 SwampSat-2 1 45115U 19071E 21238.57083272 .00109466 00000-0 11770-2 0 9998 2 45115 51.6333 24.3146 0005929 245.0307 115.0072 15.62881382 88371 HO-107 1 45119U 19071J 21238.55170058 .00004262 00000-0 12927-3 0 9993 2 45119 51.6419 56.8711 0011236 180.7713 179.3255 15.36275018 87944 Phoenix 1 45258U 98067RB 21238.56699745 .00013618 00000-0 18371-3 0 9993 2 45258 51.6401 337.6985 0004778 150.5877 209.5385 15.58109382 86135 AztechSat-1 1 45261U 98067RE 21238.52985561 .00048814 00000-0 39169-3 0 9991 2 45261 51.6350 321.6342 0001995 187.0453 173.0516 15.70501311 86374 QARMAN 1 45263U 98067RG 21238.52392752 .00032213 00000-0 32591-3 0 9995 2 45263 51.6381 329.1540 0003488 171.1179 188.9879 15.64983548 86300 Quetzal 1 1 45598U 98067RL 21238.53736775 .00026476 00000-0 29636-3 0 9994 2 45598 51.6401 334.5300 0001684 299.4850 60.5976 15.62516462 75502 BY70-2 1 45857U 20042B 21238.48502080 .00001123 00000-0 16573-3 0 9992 2 45857 97.9820 313.5055 0010507 357.3540 2.7612 14.77213654 61889 UPMSat 2 1 46276U 20061E 21238.16111060 .00000778 00000-0 43202-4 0 9993 2 46276 97.4281 310.5283 0003007 105.3451 254.8115 15.16575429 54100 AmicalSat 1 46287U 20061R 21238.46042438 .00000986 00000-0 63459-4 0 9997 2 46287 97.4833 310.1843 0002325 179.6595 180.4636 15.10613427 53913 SALSAT 1 46495U 20068K 21238.54167619 .00000010 00000-0 53070-5 0 9990 2 46495 97.6968 175.6343 0016147 188.5978 171.4969 15.03524139 49866 BY70-3 1 46839U 20079N 21238.50364765 .00002953 00000-0 91644-4 0 9997 2 46839 97.2368 310.9765 0005846 325.8745 93.3066 15.34161347 44948 SPOC 1 46921U 98067RR 21238.50567914 .00013141 00000-0 19358-3 0 9994 2 46921 51.6428 346.3476 0002172 350.3905 9.7045 15.55763431 45767 Bobcat-1 1 46922U 98067RS 21238.55707073 .00020234 00000-0 26890-3 0 9992 2 46922 51.6430 343.7186 0002218 354.7267 5.3701 15.58180187 45765 Neutron-1 1 46923U 98067RT 21238.52698504 .00012609 00000-0 18691-3 0 9995 2 46923 51.6427 346.4869 0002220 2.8130 357.2873 15.55635044 45799 CAPE 3 1 47309U 21002A 21238.52816383 .00001739 00000-0 88017-4 0 9998 2 47309 60.6840 29.9274 0045639 86.1838 274.4465 15.21025249 33541 AO-109 1 47311U 21002C 21238.52985257 .00001522 00000-0 76982-4 0 9996 2 47311 60.6864 28.8247 0041761 84.2814 276.3032 15.21893775 33530 MiTEE 1 1 47314U 21002F 21238.52957396 .00003488 00000-0 15306-3 0 9997 2 47314 60.6862 27.0647 0041962 76.6975 283.8787 15.23542710 33589 ExoCube 2 1 47319U 21002L 21238.51753627 .00001686 00000-0 84819-4 0 9996 2 47319 60.6838 29.3045 0042375 85.6582 274.9345 15.21514385 33493 UVSQ-SAT 1 47438U 21006AB 21238.40913520 .00001160 00000-0 68718-4 0 9997 2 47438 97.4819 298.3668 0011881 210.0796 149.9754 15.13295114 32637 YUSAT 1 1 47439U 21006AC 21238.47730449 .00001364 00000-0 80129-4 0 9998 2 47439 97.4822 298.4349 0011760 210.0173 150.0385 15.13312189 32640 SOMP 2b 1 47445U 21006AJ 21238.43104321 .00001045 00000-0 62558-4 0 9997 2 47445 97.4791 298.2584 0011416 214.0093 146.0408 15.13126958 32631 IDEASSat 1 47458U 21006AX 21238.45027012 .00001164 00000-0 69592-4 0 9991 2 47458 97.4882 298.4920 0010556 210.9994 149.0616 15.12991116 32630 RSP-01 1 47925U 98067SB 21238.47601166 .00012202 00000-0 19895-3 0 9996 2 47925 51.6434 352.1303 0001986 309.1798 50.9015 15.53030950 25659 TAUSAT-1 1 47926U 98067SC 21238.54457651 .00015809 00000-0 24766-3 0 9992 2 47926 51.6426 351.0844 0003099 304.7136 55.3562 15.53892401 25667 Tsuru 1 47927U 98067SD 21238.55524221 .00011779 00000-0 19439-3 0 9995 2 47927 51.6440 351.9093 0001976 306.3990 53.6818 15.52730490 25660 STARS-EC 1 47928U 98067SE 21238.53279250 .00017932 00000-0 28382-3 0 9997 2 47928 51.6430 351.7513 0005647 10.7220 349.3889 15.53493720 25640 Maya-2 1 47929U 98067SF 21238.55199904 .00012040 00000-0 19834-3 0 9994 2 47929 51.6437 351.8870 0002026 302.5364 57.5430 15.52757230 25620 OPUSAT-II 1 47930U 98067SG 21238.56227727 .00018229 00000-0 28324-3 0 9991 2 47930 51.6434 351.2090 0002148 301.5671 58.5110 15.54002889 25678 GuaraniSat-1 1 47931U 98067SH 21238.55051666 .00012012 00000-0 19778-3 0 9995 2 47931 51.6444 351.8795 0002086 301.0627 59.0158 15.52773755 25667 CubeSX-Sirius-HSE 1 47951U 21022V 21238.48827952 .00000004 00000-0 45302-5 0 9997 2 47951 97.5507 139.2209 0023928 72.4962 287.8878 15.05758602 23597 CubeSX-HSE 1 47952U 21022W 21238.48422131 .00000108 00000-0 11648-4 0 9998 2 47952 97.5506 139.2213 0023693 72.3042 288.0783 15.05797986 23595 KSU-Cubesat 1 47954U 21022Y 21238.47601893 .00001432 00000-0 10220-3 0 9998 2 47954 97.5513 139.2407 0023128 73.3024 287.0739 15.05893477 23316 GRBAlpha 1 47959U 21022AD 21238.48446466 .00000078 00000-0 96166-5 0 9997 2 47959 97.5514 139.2340 0023612 72.7231 287.6593 15.05797753 22413 Orbicraft-Zorkiy 1 47960U 21022AE 21238.47752311 .00000613 00000-0 46188-4 0 9990 2 47960 97.5521 139.2656 0023101 72.5898 287.7879 15.05870382 23108 STECCO 1 47962U 21022AG 21238.64765972 .00000915 00000-0 65122-4 0 9992 2 47962 97.5504 139.6082 0018707 69.6320 351.9057 15.06958107 22442 DO-111 1 47963U 21022AH 21238.45973425 .00003122 00000-0 20840-3 0 9996 2 47963 97.5512 139.5453 0021453 67.0503 293.2985 15.07572200 22445 MO-110 1 47964U 21022AJ 21238.47631004 .00001793 00000-0 12257-3 0 9998 2 47964 97.5502 139.5157 0021396 67.5382 292.8109 15.07230467 22429 FEES 1 48082U 21022AL 21238.52358544 .00001874 00000-0 12948-3 0 9998 2 48082 97.5516 139.4766 0017758 64.9019 295.4049 15.06825549 22136 RamSat 1 48850U 98067SL 21238.54959555 .00008963 00000-0 16155-3 0 9995 2 48850 51.6436 354.0960 0004530 41.3041 318.8290 15.50574866 11385 MO-112 1 48868U 98067SP 21238.54508022 .00018290 00000-0 31402-3 0 9999 2 48868 51.6435 354.0673 0003060 32.8551 327.2628 15.51209303 10168 TUBIN 1 48900U 21059X 21238.63091604 .00000425 00000-0 28314-4 0 9996 2 48900 97.5172 6.5075 0011678 45.1376 325.9122 15.12234357 9349 /EX